K8EMA-4 Weather Reports


time (UTC)temp
F
wind
direction
speed
knots
gust
knots
rain 1hr
in
rain 24hr
in
rain mn
in
humidity
%
barometer
mb
20260504184127 76 195 13.0 16.5 0.00 0.00 0.00 100
20260504183627 76 219 7.8 20.9 0.00 0.00 0.00 100
20260504183127 75 279 15.6 20.9 0.00 0.00 0.00 100
20260504182627 76 292 11.3 17.4 0.00 0.00 0.00 100
20260504182127 79 237 7.8 17.4 0.00 0.00 0.00 100
20260504181627 80 244 9.6 17.4 0.00 0.00 0.00 100
20260504181127 80 286 11.3 16.5 0.00 0.00 0.00 100
20260504180627 79 225 10.4 14.8 0.00 0.00 0.00 100
20260504180127 78 239 9.6 16.5 0.00 0.00 0.00 100
20260504175627 79 222 8.7 19.1 0.00 0.00 0.00 100
20260504175127 80 250 10.4 11.3 0.00 0.00 0.00 100
20260504174627 78 239 7.0 16.5 0.00 0.00 0.00 100
20260504174129 77 217 10.4 19.1 0.00 0.00 0.00 100
20260504173627 79 212 8.7 14.8 0.00 0.00 0.00 100
20260504173214 77 230 7.8 20.0 0.00 0.00 0.00 100
20260504173127 77 230 7.8 20.0 0.00 0.00 0.00 100
20260504172627 78 248 5.2 15.6 0.00 0.00 0.00 100
20260504172127 78 212 15.6 18.2 0.00 0.00 0.00 100
20260504171629 76 275 11.3 18.2 0.00 0.00 0.00 100
20260504171129 76 279 11.3 23.5 0.00 0.00 0.00 100
20260504170627 78 295 11.3 16.5 0.00 0.00 0.00 100
20260504170127 77 248 8.7 18.2 0.00 0.00 0.00 100
20260504160127 74 206 6.1 13.9 0.00 0.00 0.00 100
20260504151127 67 285 5.2 9.6 0.00 0.00 0.00 100
20260504150628 66 244 4.3 11.3 0.00 0.00 0.00 100
20260504150127 66 213 6.1 13.0 0.00 0.00 0.00 100
20260504141129 71 222 6.1 10.4 0.00 0.00 0.00 100
20260504140627 70 286 6.1 13.0 0.00 0.00 0.00 100
20260504140127 71 225 7.0 13.9 0.00 0.00 0.00 100
20260504130627 68 203 5.2 8.7 0.00 0.00 0.00 100
20260504130127 69 202 0.9 7.8 0.00 0.00 0.00 100
20260504120318 60 199 6.1 9.6 0.00 0.02 0.00 100
20260504110318 49 170 3.5 10.4 0.00 0.02 0.00 100
20260504100318 47 234 4.3 7.8 0.00 0.02 0.00 100
20260504081818 48 227 5.2 7.8 0.00 0.02 0.00 100
20260504081318 49 225 2.6 11.3 0.00 0.02 0.00 100
20260504080818 49 210 7.0 9.6 0.00 0.02 0.00 100
20260504080318 49 250 3.5 8.7 0.00 0.02 0.00 100
20260504070318 49 239 4.3 6.1 0.00 0.02 0.00 100
20260504050319 51 222 1.7 7.0 0.00 0.02 0.00 100
20260504045819 51 243 1.7 7.8 0.00 0.02 0.00 100
20260504045319 51 205 0.9 7.0 0.00 0.02 0.00 100
20260504044819 51 196 5.2 6.1 0.00 0.02 0.00 100
20260504044319 51 161 0.9 5.2 0.00 0.02 0.00 100
20260504043819 51 226 2.6 7.8 0.00 0.02 0.00 100
20260504043319 51 196 3.5 8.7 0.00 0.02 0.00 100
20260504042819 51 142 5.2 5.2 0.00 0.02 0.00 100
20260504042319 51 227 2.6 6.1 0.00 0.02 0.00 100
20260504041822 51 174 3.5 9.6 0.00 0.02 0.00 100
20260504041321 51 220 3.5 7.0 0.00 0.02 0.00 100
20260504040819 51 205 5.2 7.8 0.00 0.02 0.00 100
20260504040319 51 202 4.3 7.8 0.00 0.02 0.00 100
20260504035819 51 209 4.3 8.7 0.00 0.02 0.02 100
20260504035319 51 232 3.5 7.8 0.00 0.02 0.02 100
20260504034819 51 185 3.5 10.4 0.00 0.02 0.02 100
20260504034319 51 174 4.3 7.8 0.00 0.02 0.02 100
20260504033819 51 192 6.1 7.8 0.00 0.02 0.02 100
20260504033319 50 153 6.1 7.0 0.00 0.02 0.02 100
20260504032819 50 180 0.0 5.2 0.00 0.02 0.02 100
20260504032319 50 198 0.0 4.3 0.00 0.02 0.02 100
20260504031820 50 120 0.0 6.1 0.00 0.02 0.02 100
20260504031319 50 244 0.0 6.1 0.00 0.02 0.02 100
20260504030819 50 165 1.7 7.0 0.00 0.02 0.02 100
20260504030319 50 192 4.3 7.8 0.00 0.02 0.02 100
20260504025819 50 192 1.7 6.1 0.00 0.02 0.02 100
20260504025320 50 181 3.5 6.1 0.00 0.02 0.02 100
20260504024820 50 225 3.5 7.8 0.00 0.02 0.02 100
20260504024319 50 230 1.7 7.0 0.00 0.02 0.02 100
20260504023819 50 178 2.6 7.0 0.00 0.02 0.02 100
20260504023319 49 209 2.6 8.7 0.00 0.02 0.02 100
20260504022819 49 205 7.0 7.0 0.00 0.02 0.02 100
20260504022319 49 222 1.7 5.2 0.00 0.02 0.02 100
20260504021819 49 199 3.5 6.1 0.00 0.02 0.02 100
20260504021324 49 196 3.5 7.0 0.00 0.02 0.02 100
20260504020819 49 230 4.3 7.8 0.00 0.02 0.02 100
20260504020319 49 196 2.6 7.0 0.00 0.02 0.02 100
20260504015819 49 178 5.2 7.0 0.00 0.02 0.02 100
20260504015319 49 220 5.2 7.0 0.00 0.02 0.02 100
20260504014819 49 174 4.3 8.7 0.00 0.02 0.02 100
20260504014320 48 174 2.6 7.8 0.00 0.02 0.02 100
20260504013820 48 227 2.6 4.3 0.00 0.02 0.02 100
20260504013319 48 209 0.9 5.2 0.00 0.02 0.02 100
20260504012819 48 185 1.7 5.2 0.00 0.02 0.02 100
20260504012320 48 180 3.5 6.1 0.00 0.02 0.02 100
20260504011825 48 267 3.5 4.3 0.00 0.02 0.02 100
20260504011320 48 140 2.6 4.3 0.00 0.02 0.02 100
20260504010819 48 271 0.9 4.3 0.00 0.02 0.02 100
20260504010319 48 246 0.0 5.2 0.00 0.02 0.02 100
20260504005819 48 220 0.0 3.5 0.00 0.02 0.02 100
20260504005319 48 150 0.9 5.2 0.00 0.02 0.02 100
20260504004822 48 192 2.6 5.2 0.00 0.02 0.02 100
20260504004319 48 206 1.7 6.1 0.00 0.02 0.02 100
20260504003823 48 198 5.2 7.0 0.00 0.02 0.02 100
20260504003319 48 201 2.6 6.1 0.00 0.02 0.02 100
20260504002819 48 229 5.2 7.0 0.00 0.02 0.02 100
20260504002322 48 150 1.7 5.2 0.00 0.02 0.02 100
20260504001819 48 105 0.0 5.2 0.00 0.02 0.02 100
20260504001321 48 215 3.5 4.3 0.00 0.02 0.02 100
20260504000819 48 111 0.9 6.1 0.00 0.02 0.02 100
20260504000319 48 157 0.9 4.3 0.00 0.02 0.02 100
20260503235819 48 130 0.0 4.3 0.00 0.02 0.02 100
20260503235319 48 109 0.0 4.3 0.00 0.02 0.02 100
20260503234824 48 191 2.6 5.2 0.00 0.02 0.02 100
20260503234319 48 180 1.7 6.1 0.00 0.02 0.02 100
20260503233819 48 106 2.6 6.1 0.00 0.02 0.02 100
20260503233320 48 112 3.5 3.5 0.00 0.02 0.02 100
20260503232820 48 132 0.9 5.2 0.00 0.02 0.02 100
20260503232319 48 104 5.2 5.2 0.00 0.02 0.02 100
20260503231819 47 123 2.6 7.0 0.00 0.02 0.02 100
20260503231319 47 160 1.7 6.1 0.00 0.02 0.02 100
20260503230819 48 130 1.7 4.3 0.01 0.02 0.02 100
20260503230320 48 157 0.9 5.2 0.01 0.02 0.02 100
20260503225819 48 123 3.5 6.1 0.02 0.02 0.02 100
20260503225319 48 90 2.6 3.5 0.02 0.02 0.02 100
20260503224820 48 199 2.6 4.3 0.02 0.02 0.02 100
20260503224319 47 118 1.7 4.3 0.02 0.02 0.02 100
20260503223819 47 130 2.6 4.3 0.02 0.02 0.02 100
20260503223321 46 102 1.7 6.1 0.02 0.02 0.02 100
20260503222819 46 68 2.6 4.3 0.02 0.02 0.02 100
20260503222320 46 137 3.5 5.2 0.02 0.02 0.02 100
20260503221819 46 161 2.6 4.3 0.02 0.02 0.02 100
20260503221319 46 177 3.5 4.3 0.02 0.02 0.02 100
20260503220819 46 244 3.5 6.1 0.01 0.01 0.01 100
20260503220319 47 248 3.5 8.7 0.01 0.01 0.01 100
20260503215819 47 264 5.2 13.9 0.00 0.00 0.00 100
20260503215319 47 261 9.6 12.2 0.00 0.00 0.00 100
20260503214819 48 277 6.1 14.8 0.00 0.00 0.00 100
20260503214319 50 324 12.2 17.4 0.00 0.00 0.00 100
20260503213823 51 247 13.0 20.0 0.00 0.00 0.00 100
20260503213319 51 240 13.0 22.6 0.00 0.00 0.00 100
20260503212819 52 284 12.2 22.6 0.00 0.00 0.00 100
20260503212319 52 257 14.8 24.3 0.00 0.00 0.00 100
20260503211819 54 312 7.0 23.5 0.00 0.00 0.00 100
20260503211319 54 233 10.4 28.7 0.00 0.00 0.00 100
20260503210819 55 267 20.9 26.1 0.00 0.00 0.00 100
20260503210319 58 239 17.4 19.1 0.00 0.00 0.00 100
20260503205819 60 227 10.4 19.1 0.00 0.00 0.00 100
20260503205320 61 278 7.0 14.8 0.00 0.00 0.00 100
20260503204820 61 255 7.8 13.9 0.00 0.00 0.00 100
20260503204321 60 254 9.6 19.1 0.00 0.00 0.00 100
20260503203820 60 264 13.0 18.2 0.00 0.00 0.00 100
20260503203320 60 234 8.7 21.7 0.00 0.00 0.00 100
20260503202820 61 258 8.7 19.1 0.00 0.00 0.00 100
20260503202320 61 255 7.0 18.2 0.00 0.00 0.00 100
20260503201820 61 272 12.2 19.1 0.00 0.00 0.00 100
20260503201320 63 192 9.6 15.6 0.00 0.00 0.00 100
20260503200820 62 230 4.3 13.0 0.00 0.00 0.00 100
20260503200320 63 250 7.8 15.6 0.00 0.00 0.00 100
20260503195820 63 250 13.9 15.6 0.00 0.00 0.00 100
20260503195320 65 281 9.6 13.9 0.00 0.00 0.00 100
20260503194820 65 243 9.6 16.5 0.00 0.00 0.00 100
20260503194320 63 230 7.0 14.8 0.00 0.00 0.00 100
20260503193820 65 267 10.4 10.4 0.00 0.00 0.00 100
20260503193320 64 262 5.2 13.9 0.00 0.00 0.00 100
20260503192820 63 209 13.0 18.2 0.00 0.00 0.00 100
20260503192320 63 241 11.3 16.5 0.00 0.00 0.00 100
20260503191820 65 299 9.6 13.9 0.00 0.00 0.00 100
20260503191320 65 261 9.6 13.0 0.00 0.00 0.00 100
20260503190820 64 247 7.0 15.6 0.00 0.00 0.00 100
20260503190320 65 285 6.1 20.9 0.00 0.00 0.00 100
20260503185820 65 270 10.4 13.0 0.00 0.00 0.00 100
20260503185320 65 236 7.0 13.0 0.00 0.00 0.00 100
20260503184820 66 210 4.3 21.7 0.00 0.00 0.00 100